Theta_e
323 322 321 324 321 318 320 320 316 320 329 325 315 313 316 315 314 316 316 319 323 326 333 337 338 336 335 336 338 339 343 347 348 349 351 351 351 351 351 353 354 355 356 357 358 357 358 359 359 360 360 361 361 362 363 364 364 364 366 365 365 364 364
322 323 322 324 323 323 321 315 317 326 330 327 319 314 316 316 315 315 314 316 318 317 322 332 336 334 333 335 335 335 340 347 349 349 350 351 351 352 352 354 355 355 356 357 358 357 357 358 359 360 360 361 362 361 363 364 364 365 365 366 365 364 365
321 323 321 320 321 325 323 320 325 325 318 317 318 315 315 316 315 315 313 314 316 314 318 327 333 334 335 335 334 334 337 345 350 349 350 352 351 351 353 353 354 356 355 357 358 357 356 358 359 360 360 361 361 362 363 363 364 364 364 366 366 365 365
321 321 319 314 316 322 324 323 327 325 319 317 317 317 317 314 314 315 313 313 315 319 325 330 334 337 336 334 336 336 335 342 350 351 349 350 352 352 352 352 354 355 354 356 358 356 356 357 359 360 360 359 360 361 362 362 363 364 364 365 365 365 365
318 316 317 316 316 318 319 317 318 319 320 320 319 318 316 315 314 314 315 313 313 323 334 334 335 337 335 335 335 336 335 335 344 351 350 351 353 353 353 352 353 353 353 355 356 356 356 357 359 359 358 358 358 359 361 362 362 364 364 365 365 366 366
313 315 321 322 320 321 320 317 316 317 318 317 315 316 316 315 313 313 315 313 314 325 337 336 335 336 333 334 334 334 337 333 337 349 351 351 354 354 352 352 351 352 353 355 355 356 356 356 358 359 358 358 358 358 360 360 361 362 362 365 366 366 366
318 321 324 322 321 323 323 321 322 321 320 316 311 313 315 314 314 314 314 312 317 329 336 334 335 336 333 334 334 333 334 332 338 350 351 351 354 353 351 349 350 352 353 354 356 356 357 357 358 359 358 358 358 358 358 359 360 360 360 362 366 367 366
324 324 325 324 324 323 320 320 323 322 321 319 317 318 318 315 313 314 313 312 318 329 340 340 337 335 332 333 334 335 337 338 343 351 351 351 354 354 352 350 350 351 352 356 358 358 359 359 359 360 359 358 359 358 358 358 359 360 359 361 366 367 366
320 320 321 321 321 321 319 319 323 323 323 323 321 321 320 316 313 315 314 312 317 329 344 346 342 339 334 331 334 336 342 344 347 352 353 353 355 356 354 352 351 352 354 359 360 361 362 361 360 361 360 359 360 359 358 358 358 359 360 360 364 366 365
316 316 315 316 317 319 320 320 321 322 322 322 320 316 314 313 315 316 314 313 319 331 340 341 341 341 335 333 333 332 338 346 349 353 355 355 356 356 355 353 354 355 358 361 362 363 364 363 362 363 362 360 359 359 359 359 358 360 361 360 364 365 364
317 316 319 324 324 318 316 317 319 321 322 322 320 314 310 314 316 315 317 319 319 326 334 336 336 336 334 335 334 331 337 348 350 355 358 356 356 356 355 355 356 358 361 363 364 365 366 365 363 363 363 360 360 361 361 360 359 360 361 361 363 364 362
322 324 326 328 327 320 317 318 318 320 323 322 318 312 314 319 315 311 321 326 320 323 334 335 334 335 334 333 333 333 338 346 352 359 360 355 355 355 356 357 359 361 363 364 366 366 366 365 363 364 363 361 361 362 362 361 360 361 362 363 364 364 362
325 328 327 327 327 325 323 322 319 321 322 321 317 315 319 322 315 313 323 327 324 327 333 333 333 334 333 334 334 332 332 339 352 362 361 355 353 355 356 358 360 361 363 365 366 365 365 365 364 364 363 362 363 363 363 363 361 361 363 365 365 365 362
325 327 327 327 326 324 323 323 323 324 323 322 320 320 322 322 319 321 326 327 328 332 332 331 332 333 333 333 333 331 330 336 350 359 358 353 352 353 355 358 360 361 362 364 364 364 365 365 364 364 363 363 364 363 363 363 362 362 364 365 366 364 362
321 326 328 326 326 324 321 321 325 325 323 322 321 321 323 323 321 324 325 324 328 332 333 332 331 333 333 332 332 334 334 336 345 353 354 352 351 352 354 358 359 360 361 362 363 363 363 364 365 364 364 364 364 363 363 363 363 363 364 366 365 363 361
317 324 326 325 325 323 319 318 322 324 322 321 321 323 324 322 321 323 320 318 324 331 331 331 332 331 331 333 334 335 338 341 346 351 353 354 354 354 355 358 359 359 360 362 363 362 362 364 365 365 365 365 364 363 362 363 363 363 365 366 364 362 361
316 321 324 322 321 318 315 317 323 325 324 324 323 324 326 326 324 322 318 320 327 331 329 331 333 330 329 335 338 339 345 351 352 353 353 354 355 356 357 358 359 358 358 360 361 362 362 364 364 364 364 365 364 363 362 363 363 363 365 365 363 362 360
317 320 323 322 319 314 316 323 327 327 326 326 324 324 326 326 326 325 324 327 331 332 330 332 333 332 333 338 342 344 349 354 357 356 354 353 354 355 355 356 357 358 358 359 360 361 361 362 363 362 363 364 364 363 361 362 363 364 365 365 362 361 360
320 320 322 319 316 318 325 332 332 329 328 327 326 327 328 327 327 327 328 330 330 330 332 333 332 334 336 339 345 349 349 351 354 354 354 356 356 355 356 357 357 358 358 358 359 360 359 359 359 361 362 363 363 362 362 362 364 364 365 364 362 360 359
324 322 320 319 321 325 329 334 335 333 332 330 326 324 326 327 328 328 329 330 329 330 333 331 331 337 342 343 348 351 348 346 346 344 346 352 352 353 356 357 357 358 358 358 360 361 359 358 359 361 361 361 361 362 362 363 364 365 365 364 362 359 358
328 322 317 320 323 324 329 337 340 339 338 338 333 328 329 330 328 328 329 330 328 329 331 331 335 342 342 342 341 341 342 343 342 340 340 344 350 353 353 354 356 358 358 359 361 361 359 359 359 360 360 360 360 362 362 363 363 363 363 363 361 359 358
328 323 321 323 320 320 329 339 341 339 336 339 340 334 333 334 330 328 329 331 331 332 330 332 340 343 340 337 335 334 337 341 342 340 340 341 346 349 350 353 357 359 359 360 360 359 358 358 357 358 358 359 361 362 361 361 362 362 362 363 361 360 358
324 323 325 325 320 324 339 342 339 338 335 337 339 330 327 334 338 334 329 329 333 334 332 336 345 343 336 333 334 336 340 340 341 342 343 344 346 350 354 356 358 358 359 358 357 357 357 357 358 358 359 360 361 362 361 361 361 362 362 362 361 360 358
322 323 324 323 322 332 344 340 336 337 336 338 335 323 325 340 348 344 341 338 335 333 334 343 346 341 335 334 338 341 342 341 341 345 347 348 350 353 354 354 355 358 359 357 357 358 360 361 361 360 360 361 362 362 362 362 362 362 362 361 361 359 357
322 323 322 322 327 338 343 338 337 337 335 335 330 325 333 347 347 343 344 344 342 340 343 345 344 341 340 343 343 342 342 344 346 347 348 349 351 351 352 355 358 359 359 359 360 363 365 364 362 361 362 363 364 363 363 362 362 362 361 361 360 358 356
321 322 323 323 328 338 341 337 337 337 334 332 332 336 343 346 344 344 344 341 342 345 346 345 343 342 344 344 345 345 347 350 352 352 351 353 356 357 358 359 359 359 361 363 363 365 365 364 363 364 364 365 365 365 363 363 363 363 361 360 358 356 354
322 322 324 324 328 336 339 337 338 340 338 337 339 343 346 344 344 347 347 344 343 344 345 346 346 347 349 351 352 354 354 356 356 356 357 357 358 359 359 359 359 360 362 363 362 363 363 363 364 365 365 365 364 363 363 363 363 362 360 358 357 355 354
322 319 324 329 334 338 338 337 339 341 339 338 340 342 345 345 345 347 350 350 348 347 351 353 352 354 357 357 357 357 356 356 356 356 357 356 355 356 357 358 359 359 360 360 360 361 361 362 362 362 363 362 362 362 363 363 361 360 360 357 355 354 353
328 326 331 338 341 340 337 337 339 338 335 335 336 339 341 343 344 346 349 352 351 352 355 356 356 357 357 356 356 356 356 357 357 356 356 356 356 357 358 359 358 358 359 359 358 358 359 360 360 361 360 360 361 363 362 359 358 358 358 356 355 353 353
337 337 340 342 341 340 337 335 335 333 332 332 334 337 339 340 342 344 345 347 349 350 352 354 355 356 354 354 356 356 358 358 359 359 358 358 358 360 360 361 360 358 358 358 357 356 356 356 357 358 358 360 361 360 356 354 354 356 355 354 353 351 352
333 336 340 341 340 341 338 335 334 332 331 332 332 335 338 338 339 340 342 343 344 344 345 348 349 349 350 353 354 354 356 357 357 357 358 357 358 360 361 361 360 359 358 357 356 354 353 352 354 355 355 356 356 353 351 352 352 352 352 351 350 350 350
337 339 343 341 339 337 334 333 333 333 331 331 331 333 335 335 336 338 339 340 341 343 344 345 344 343 344 348 350 351 352 354 355 356 357 357 358 360 362 362 361 361 360 358 355 354 352 352 352 352 352 351 350 349 350 349 349 350 350 348 348 348 348
340 341 341 340 339 337 332 330 330 330 330 331 331 332 332 333 335 336 337 337 338 341 343 345 347 346 345 345 345 346 348 350 352 353 354 356 358 359 360 361 362 361 361 359 357 355 354 352 351 350 349 348 347 347 347 347 348 349 348 347 347 347 346
339 340 340 339 341 341 335 331 330 329 329 330 331 331 331 332 333 335 335 335 335 335 337 341 346 348 348 347 346 346 348 350 351 352 353 354 356 357 357 357 359 359 359 358 358 356 354 353 351 349 348 347 346 346 346 347 348 348 347 346 346 345 344
335 335 337 337 338 337 333 331 331 330 329 329 330 330 330 330 331 332 332 333 333 333 332 334 338 342 344 344 345 346 348 349 351 352 352 352 352 353 353 354 357 357 357 357 357 356 355 353 351 349 348 347 346 346 345 346 347 346 345 345 344 343 343
331 331 332 334 333 331 329 329 330 330 329 328 328 329 329 328 328 329 330 330 330 331 331 331 332 335 337 338 340 343 345 346 349 351 351 350 349 349 350 352 354 355 356 356 356 355 354 352 351 349 348 346 345 345 344 345 345 345 344 344 343 342 343
330 329 330 330 329 328 327 327 328 329 328 328 328 329 329 328 326 326 328 329 328 328 329 330 331 333 333 333 335 337 339 340 344 347 348 348 348 347 347 349 351 352 353 353 353 353 353 352 350 349 348 346 345 344 343 344 344 344 344 344 344 343 343
Wind_Speed
17 17 17 18 14 9 9 13 15 13 13 13 10 11 11 11 12 11 8 8 8 8 9 12 13 14 13 12 11 11 11 12 13 12 14 15 16 17 18 17 18 19 20 22 25 26 26 26 26 27 27 28 29 27 25 26 26 25 26 27 27 26 25
18 16 17 20 18 13 8 11 14 11 9 12 11 10 9 11 12 10 10 12 11 10 9 11 15 18 17 16 14 14 11 12 14 14 14 15 16 17 18 19 19 19 19 21 25 27 27 28 28 29 30 29 29 28 27 27 27 27 27 27 27 26 25
16 16 15 16 18 20 15 9 11 11 9 10 10 9 10 12 11 10 13 15 11 11 9 8 12 15 16 16 14 13 11 12 14 13 14 16 16 16 17 18 17 17 18 21 25 27 28 28 28 29 30 29 27 27 27 27 29 30 29 27 25 25 24
16 15 13 13 14 19 18 11 9 12 11 10 10 9 8 11 11 10 14 14 10 10 11 11 11 11 11 12 10 9 9 11 13 12 13 14 15 15 16 17 17 18 19 23 28 29 28 29 28 28 29 28 28 28 27 28 28 29 28 26 25 25 24
15 12 12 15 14 15 14 12 11 12 9 9 11 11 10 11 12 10 11 12 9 8 10 13 14 11 11 11 11 10 10 11 12 12 12 13 14 16 16 16 17 18 19 22 27 29 28 28 27 28 28 28 29 29 28 29 28 27 28 27 26 25 24
11 12 14 18 19 17 14 12 13 13 10 10 12 12 12 12 12 11 11 11 10 7 7 11 14 14 14 14 14 12 12 14 12 10 12 13 14 15 16 15 15 16 16 18 22 25 25 26 27 27 27 27 28 29 28 28 28 28 28 27 26 24 23
10 14 15 17 21 21 17 14 15 15 13 12 12 11 11 12 13 14 13 12 10 7 7 9 12 14 14 15 14 13 13 14 10 8 10 12 13 13 14 15 14 14 14 15 19 22 24 25 25 26 26 26 27 28 28 27 28 29 28 27 25 23 23
9 13 14 15 17 18 17 15 15 16 16 16 14 12 11 11 13 13 13 13 10 7 6 7 9 12 14 15 15 14 14 12 8 7 8 9 10 11 12 13 13 12 13 14 16 18 21 23 24 25 26 25 26 26 27 27 28 29 28 26 24 23 25
8 11 12 12 13 14 13 13 17 18 20 22 19 14 12 12 15 17 15 12 10 8 7 6 8 13 15 15 14 12 11 11 8 6 7 7 9 9 11 12 12 13 13 14 14 14 18 21 23 23 25 25 25 25 26 26 26 27 27 25 24 25 27
10 11 11 10 11 12 11 14 19 21 24 25 19 13 13 13 14 17 15 11 11 12 12 11 11 13 12 12 12 13 12 11 8 5 6 7 8 9 11 12 13 13 13 13 14 14 17 21 22 22 24 25 24 24 26 26 25 24 24 25 26 27 28
12 11 10 10 11 12 14 17 21 21 22 25 20 13 13 12 11 14 15 13 14 15 15 15 15 14 13 12 13 15 13 11 9 7 7 7 8 9 11 12 12 13 13 14 16 15 18 21 22 22 23 24 24 24 25 25 23 22 23 26 27 28 28
18 16 14 13 14 15 17 19 21 20 19 22 21 18 16 15 12 13 14 15 17 17 17 16 15 14 14 13 13 15 14 11 8 6 7 8 9 10 11 12 13 15 15 15 16 16 18 21 22 22 22 23 23 23 22 22 21 21 22 25 26 27 26
22 22 20 18 16 15 17 19 20 21 22 22 21 21 22 20 14 13 14 16 19 19 19 20 17 14 14 14 14 16 16 13 7 6 7 9 10 11 13 14 15 15 15 15 16 16 17 20 22 21 21 22 22 21 20 21 21 21 21 23 24 24 23
21 24 23 23 21 18 19 20 21 22 24 25 23 22 24 24 21 19 18 19 19 17 18 21 20 17 16 15 15 16 17 16 10 7 9 10 11 13 14 15 15 15 15 15 16 16 17 19 21 21 21 21 22 21 21 21 22 22 21 22 23 23 22
17 21 22 23 23 22 21 21 22 23 23 24 25 23 22 22 22 23 23 22 18 15 15 18 18 17 17 16 17 17 17 18 14 10 10 11 12 13 14 14 14 14 15 15 16 17 17 19 22 22 21 21 21 21 21 22 23 23 22 23 24 22 21
12 17 20 22 22 21 21 21 21 23 22 21 21 20 21 21 20 22 23 19 15 13 15 17 17 18 19 18 18 17 16 16 16 12 11 12 13 13 13 14 14 15 17 17 18 18 18 20 22 22 21 21 21 21 22 21 22 23 22 23 23 21 23
10 14 18 19 19 17 16 16 19 21 21 21 20 20 21 23 21 18 17 15 13 14 15 17 18 21 21 18 17 15 14 14 14 12 12 12 12 12 12 13 15 16 17 16 16 17 18 20 22 22 21 21 21 21 21 20 21 22 22 22 22 22 25
8 10 9 10 14 14 11 11 16 21 22 22 22 20 21 21 19 16 15 14 14 14 16 18 18 18 18 16 15 15 13 11 11 11 11 11 10 10 11 12 14 14 13 13 15 17 19 20 20 20 20 19 18 19 20 19 20 21 21 21 22 24 26
7 8 6 8 12 11 6 5 8 12 16 20 22 21 21 21 20 19 19 18 17 16 16 17 16 15 15 13 13 12 10 8 8 9 9 9 10 10 11 12 12 13 13 13 14 17 19 19 19 19 18 17 17 18 19 19 20 20 20 20 21 24 26
5 6 9 10 9 6 6 3 2 4 9 14 17 19 22 22 21 20 20 20 20 18 16 16 15 12 10 8 7 9 9 8 10 10 9 9 11 11 11 12 12 14 15 16 17 18 19 19 19 19 19 19 19 19 19 19 19 19 19 20 21 22 24
4 6 8 8 6 7 7 2 5 5 4 6 8 10 14 18 20 19 18 20 21 20 19 18 13 7 5 7 9 11 12 11 11 11 10 10 11 11 12 13 14 16 17 18 19 20 20 20 20 19 19 20 19 19 19 18 19 19 18 19 20 21 22
3 4 5 7 8 7 3 3 5 6 6 7 6 6 8 13 17 20 19 19 19 20 20 17 9 6 6 9 10 12 14 12 11 10 10 10 11 12 12 13 15 18 20 20 20 20 20 20 19 20 21 21 20 19 18 18 18 18 17 18 18 19 21
6 5 5 7 9 4 3 5 6 7 5 4 4 6 9 9 11 16 19 21 20 20 19 14 10 7 9 10 10 9 11 12 10 9 9 9 10 11 13 15 17 18 20 21 20 19 19 19 20 21 22 22 20 18 17 16 16 15 16 17 17 18 20
8 7 7 7 5 1 6 8 9 7 3 1 4 9 6 5 11 12 12 16 18 18 15 12 11 11 10 8 5 7 10 10 9 9 9 9 10 11 13 16 19 19 20 21 21 20 19 19 20 22 22 20 18 17 16 15 14 14 14 15 16 17 18
9 8 8 7 4 2 6 9 9 6 3 5 7 6 3 8 13 12 11 12 13 11 11 11 10 10 6 2 4 8 10 9 9 9 10 11 11 12 13 16 18 19 19 20 20 19 19 19 20 20 20 19 18 17 16 15 13 12 12 13 14 15 16
10 9 8 8 6 2 5 7 5 4 4 5 3 5 8 10 12 10 8 10 10 9 10 11 8 7 7 7 8 9 10 11 11 11 12 13 13 15 17 17 18 19 19 19 20 19 18 19 19 18 19 19 18 17 15 13 12 11 12 13 13 14 15
9 9 9 8 6 3 5 5 3 4 4 5 6 9 10 9 9 9 7 5 6 7 8 8 7 9 10 10 10 11 11 12 13 13 14 16 16 17 18 18 18 18 18 17 18 17 17 16 16 17 18 18 17 16 15 13 12 13 13 13 14 14 15
9 11 9 5 3 6 5 4 3 3 4 7 8 8 8 7 7 6 4 3 2 3 4 5 7 10 12 12 12 13 12 13 14 14 15 16 16 17 17 18 19 19 17 17 17 16 14 14 13 13 15 16 16 15 15 14 14 14 14 14 14 14 15
5 4 2 3 5 6 7 7 6 5 5 7 7 6 5 5 5 5 4 5 5 3 5 7 8 11 14 15 15 15 15 16 16 16 16 16 17 17 18 18 19 18 18 19 18 17 14 14 14 12 12 14 15 14 13 13 13 13 14 14 14 13 13
2 2 5 6 5 5 8 10 10 8 7 8 7 7 6 5 4 5 7 8 9 8 7 8 10 13 16 18 17 16 16 17 17 17 16 16 16 17 17 17 18 18 18 17 17 17 15 13 14 12 11 13 14 13 11 11 10 10 11 12 11 11 10
3 3 4 5 5 6 8 10 11 10 8 8 8 7 7 7 6 7 11 14 13 11 8 8 10 14 17 17 16 15 15 15 16 16 16 15 15 15 15 15 16 17 16 14 15 15 13 12 12 12 11 12 13 12 11 11 10 11 11 11 11 10 9
1 3 5 5 7 9 10 9 9 8 7 8 10 9 9 10 10 10 14 16 15 13 11 9 10 15 16 16 15 14 13 13 14 14 14 14 14 14 15 15 15 16 16 15 14 14 13 11 11 12 12 12 12 12 11 11 12 12 12 12 12 10 9
2 4 5 5 6 9 11 10 10 8 7 7 10 11 12 13 13 13 15 17 15 14 12 11 12 14 14 14 15 15 13 13 13 13 12 12 13 13 14 14 15 16 16 15 15 14 12 11 11 12 12 11 11 11 11 11 12 13 13 12 11 10 9
2 2 3 4 4 5 7 8 10 10 8 7 11 13 14 15 14 13 14 16 16 16 15 13 12 12 12 12 14 14 13 12 12 13 12 12 12 13 14 14 16 16 15 15 15 14 12 11 11 11 11 11 10 10 10 11 12 13 13 11 10 9 9
3 3 2 3 4 5 5 6 9 9 7 9 13 14 14 14 14 14 14 15 16 16 15 15 14 13 12 12 13 14 13 12 12 12 12 12 12 13 14 14 14 14 14 14 14 13 11 10 11 11 11 10 9 9 10 10 11 12 12 9 9 9 8
4 4 3 5 6 7 6 6 8 8 7 10 13 14 14 14 14 13 14 14 14 14 14 14 15 14 13 13 14 14 13 12 12 13 13 14 13 13 13 13 13 13 12 12 11 11 10 10 10 10 10 9 8 9 10 10 11 11 10 9 9 9 8
4 5 6 9 10 10 8 8 9 8 8 10 12 12 13 14 13 12 12 13 13 13 13 13 14 15 14 12 12 12 12 13 13 12 12 12 12 12 12 12 11 11 10 10 9 9 9 9 9 9 9 9 9 8 9 9 9 10 10 10 10 9 10
Wind_Direction
195 194 201 209 218 213 197 207 219 222 222 227 231 234 233 228 233 230 207 211 227 233 244 243 245 254 253 249 246 238 224 205 200 202 201 202 200 198 197 198 197 195 192 193 195 196 196 196 197 197 194 194 195 195 195 198 199 198 198 200 203 204 204
194 194 201 206 220 224 205 207 211 212 229 238 235 226 216 219 232 236 224 222 221 225 236 236 236 242 245 246 248 246 228 202 203 206 201 202 200 196 197 198 198 196 193 193 195 197 197 196 195 194 193 194 195 195 195 195 197 198 199 201 202 203 202
193 193 206 207 211 220 227 227 209 206 219 222 222 225 221 221 228 238 235 229 223 226 229 220 220 225 231 235 240 243 228 204 206 209 203 201 198 195 197 199 200 198 196 195 196 198 198 197 194 191 193 194 194 196 196 196 198 199 200 200 200 201 201
195 188 206 211 201 209 223 237 224 217 221 217 215 221 228 231 232 236 237 233 222 222 228 222 215 213 224 234 236 242 240 221 211 208 203 197 193 195 199 199 199 199 199 198 197 197 197 196 193 192 194 194 195 196 196 197 198 199 199 198 196 198 198
198 192 201 211 206 199 204 217 221 213 211 223 226 222 224 233 237 234 237 240 228 210 218 224 224 224 236 250 255 256 259 248 226 206 198 193 192 198 199 201 203 201 201 201 199 197 195 193 192 193 195 195 196 197 197 198 198 197 198 197 196 196 195
203 208 202 209 217 211 199 203 216 215 209 215 224 224 220 225 235 236 237 244 239 214 199 211 224 233 235 241 249 254 258 259 244 207 194 193 195 201 201 202 206 204 202 202 199 196 193 193 193 194 196 195 196 197 198 199 199 199 199 197 195 192 190
210 216 209 209 218 222 218 212 213 217 217 216 220 223 218 221 233 237 241 245 241 226 198 192 213 230 234 238 250 259 260 261 252 207 195 196 198 204 203 202 206 205 201 198 194 193 194 194 194 193 194 196 196 197 197 198 199 201 201 197 192 186 185
219 220 215 206 212 223 226 221 214 216 219 220 225 228 225 227 229 229 238 240 235 227 203 193 214 226 230 237 245 249 252 259 250 206 196 196 197 202 203 203 207 204 196 191 189 190 191 192 192 191 192 194 195 196 197 198 199 200 200 196 187 182 185
215 217 211 199 205 216 223 223 218 218 221 223 227 230 229 233 230 228 235 236 230 225 208 207 229 228 224 227 233 237 243 254 251 210 189 189 190 195 199 202 205 201 194 188 185 185 186 187 188 189 191 192 193 195 197 199 200 199 196 192 185 185 190
209 209 208 199 202 208 217 226 222 219 221 223 225 228 228 232 231 230 235 237 233 225 208 203 217 224 220 222 236 249 251 253 251 215 182 183 185 190 197 200 200 198 194 186 182 182 182 183 185 186 189 191 193 195 198 199 200 196 192 190 188 189 192
224 219 217 212 210 209 212 219 222 223 223 224 227 230 229 230 230 232 237 242 241 230 212 204 211 222 226 226 239 251 249 248 247 223 190 182 183 188 193 195 195 195 192 185 182 181 180 181 184 185 187 191 193 195 197 198 197 192 189 189 189 188 191
236 237 233 221 216 219 218 217 219 222 223 225 228 230 232 234 232 233 234 234 238 235 225 217 214 220 229 232 241 251 253 253 244 210 188 188 189 188 188 191 194 194 193 188 185 184 181 182 184 185 188 191 192 194 195 194 193 191 189 189 189 189 191
232 237 239 234 226 224 225 223 220 220 221 222 226 231 235 235 236 240 234 227 230 233 232 233 230 227 231 236 241 248 257 261 242 189 194 205 200 193 190 192 195 196 196 192 187 185 182 182 184 185 187 189 190 190 191 191 192 192 188 186 188 190 189
228 231 233 235 233 227 228 230 229 227 224 222 224 230 233 234 238 243 241 236 232 228 228 237 241 242 244 247 245 244 252 261 253 212 210 217 210 203 197 195 195 195 197 195 187 183 182 183 184 185 185 187 187 188 188 189 191 190 186 185 188 189 186
231 229 230 232 234 232 231 231 232 233 232 228 226 226 228 232 236 238 239 240 237 228 228 237 240 244 247 247 243 241 246 256 256 237 224 224 218 210 202 195 193 192 194 193 185 182 183 184 183 183 183 184 184 187 188 188 188 187 185 184 188 189 184
230 225 227 229 230 234 235 233 232 233 234 234 232 228 226 228 232 234 235 237 238 233 232 234 234 238 242 239 236 235 237 246 248 240 232 228 219 211 202 194 190 190 191 189 185 183 183 183 182 181 179 179 181 186 187 186 185 185 184 183 183 185 185
231 223 223 225 226 229 231 229 229 232 234 235 237 235 231 227 229 233 233 235 238 234 230 230 230 232 234 230 228 228 229 235 237 234 234 232 222 212 201 192 190 191 191 189 184 181 180 182 182 180 178 178 181 184 183 182 182 183 184 183 182 186 191
236 221 215 225 228 227 229 228 227 229 231 233 236 239 237 232 231 236 241 242 239 229 225 229 229 228 228 226 224 224 225 226 227 229 235 238 231 218 204 197 194 190 186 182 177 177 181 183 182 180 179 178 178 178 178 179 180 181 183 184 184 191 196
234 211 201 225 227 224 237 251 239 238 239 238 239 241 242 240 237 238 242 244 242 232 226 230 232 231 231 231 231 230 228 227 229 230 232 229 223 214 203 196 190 181 175 173 172 174 179 179 176 175 175 173 170 171 173 175 176 178 179 180 185 193 195
236 215 217 228 237 249 258 273 351 309 260 246 244 242 238 237 237 236 236 238 240 235 229 233 238 235 232 236 241 240 235 232 233 235 234 223 213 206 196 187 181 177 173 170 167 167 169 169 168 168 169 168 168 168 171 173 174 175 178 180 185 192 191
237 230 228 231 247 260 254 264 38 16 325 289 275 257 242 237 237 237 236 236 235 232 234 239 234 215 220 244 248 240 232 225 227 233 236 224 207 196 188 181 176 173 169 165 161 158 158 160 162 163 164 166 165 166 169 171 174 176 179 181 184 188 187
226 248 244 236 237 233 200 81 44 13 348 332 321 294 256 242 238 234 232 231 230 232 237 233 207 179 219 244 248 239 224 212 210 219 225 219 203 192 183 174 168 164 160 155 152 153 155 158 160 161 162 162 160 162 167 170 174 177 181 183 182 183 185
223 235 238 239 240 221 88 48 12 355 340 336 319 270 245 248 257 247 235 227 223 229 232 215 180 186 224 237 240 224 203 195 193 193 197 193 181 172 165 159 157 157 152 147 148 154 156 156 158 158 158 157 156 158 163 167 171 177 182 184 183 184 185
219 227 236 248 247 121 51 10 352 342 321 218 231 237 237 327 332 311 277 248 232 227 222 200 186 204 224 239 225 171 162 171 172 171 176 172 163 160 159 155 152 150 147 145 149 154 153 152 154 154 153 152 151 152 157 162 169 176 181 183 183 183 184
216 222 234 251 249 83 28 353 348 340 277 213 215 236 302 336 324 324 318 290 267 241 214 197 200 211 209 173 126 139 147 152 151 155 162 160 156 152 147 144 142 140 141 143 144 143 143 145 148 149 149 145 143 146 152 157 166 172 174 176 178 180 185
223 223 229 241 230 124 18 353 15 18 281 234 251 319 322 315 311 317 314 292 283 265 229 213 208 188 158 136 133 138 139 136 136 142 145 140 135 128 124 127 133 134 135 134 131 130 134 139 143 145 144 139 138 143 147 152 158 159 160 167 174 178 186
221 219 222 234 218 134 30 352 40 42 317 299 329 323 312 318 328 325 315 298 286 270 240 214 183 152 139 133 128 126 126 126 126 127 126 123 119 117 118 123 128 126 122 120 119 121 126 131 136 140 137 132 134 139 140 143 148 150 155 164 170 176 185
215 223 220 219 154 106 73 37 59 51 333 318 319 312 316 339 342 331 342 12 334 267 225 177 151 136 126 120 118 117 114 111 107 106 106 107 110 111 111 113 116 114 111 110 108 107 112 117 122 127 128 128 132 135 136 141 147 150 157 162 166 175 184
214 249 221 114 89 93 94 86 80 63 9 341 330 327 337 349 354 3 30 61 78 104 135 140 134 125 117 113 110 107 103 99 95 94 94 96 101 104 104 106 110 111 112 114 113 110 109 108 108 112 120 127 129 128 131 140 147 152 156 160 166 175 181
141 59 73 91 84 78 88 90 81 62 31 5 358 4 7 1 16 45 58 64 71 86 113 123 118 111 105 101 98 94 90 88 87 87 87 87 90 96 100 105 109 111 110 111 111 108 105 101 103 108 116 121 121 120 124 134 142 145 149 155 162 169 173
174 158 106 100 92 76 73 76 75 65 42 18 7 12 19 19 27 54 65 64 63 66 74 88 99 99 95 93 92 89 84 82 82 81 80 78 78 81 84 92 100 103 101 98 96 96 94 93 97 102 104 106 111 117 124 131 135 135 140 148 153 157 164
144 125 100 95 91 75 60 60 68 61 39 25 18 14 22 29 31 46 60 62 57 50 44 49 72 84 87 90 92 90 87 85 83 81 81 81 80 78 78 82 89 92 93 94 94 93 93 94 97 100 101 104 113 122 127 132 135 134 136 142 145 148 157
133 111 115 126 109 80 63 60 62 49 28 29 30 23 25 30 31 41 57 62 58 47 35 33 49 65 74 82 88 89 88 87 88 87 87 86 85 83 82 82 84 87 91 94 96 96 96 98 100 101 104 110 119 125 128 133 135 133 133 136 137 138 151
178 105 137 147 121 88 72 63 59 48 30 36 45 37 29 28 26 33 50 60 59 50 37 31 38 51 59 69 78 81 80 80 85 89 90 88 85 84 84 83 81 83 87 91 94 96 98 101 103 103 105 110 115 119 124 129 128 125 126 129 132 143 163
36 30 107 110 72 79 93 81 71 58 39 47 55 47 37 33 28 30 42 51 54 51 42 34 35 41 47 55 65 70 69 66 70 76 79 83 85 83 83 83 82 82 85 89 91 93 95 98 101 101 102 105 107 109 112 114 113 114 119 131 151 168 174
42 35 90 105 95 98 96 79 73 66 53 59 61 51 43 40 32 29 37 43 46 49 46 37 32 33 40 48 55 62 65 61 60 64 68 71 77 81 82 81 82 82 83 85 87 90 92 94 95 97 99 100 100 100 100 101 106 117 133 154 170 171 153
80 75 90 99 102 102 95 77 70 65 60 67 67 55 46 42 34 32 36 37 39 44 46 41 30 24 29 42 49 55 62 61 58 64 69 69 73 78 81 82 82 84 86 88 90 92 94 94 94 95 95 93 92 96 102 110 123 139 154 162 160 153 144